sat.trackr.live / text

‹ back to catalog

STARLINK-37174

NORAD 68767 · 2026-086B

PAYLOAD ACTIVE UNKNOWN

§ Identity

Operator
Country
US
Launch date
2026-04-19
Launch site
AFWTR
Launch vehicle
Mass (kg)
RCS (m²)

Purposes: comms

External: N2YO · Heavens-Above · Gunter

§ Orbital elements

Epoch: 2026-09-19T08:15:25.553664Z

Period
93.91 min
Inclination
97.2865°
Eccentricity
0.0000787
Mean motion
15.33439008 rev/d
Perigee alt
465.0 km
Apogee alt
466.1 km
Semi-major
6,843.7 km
B*
3.2251e-4
RAAN
297.7249°
Arg perigee
102.2675°
Mean anomaly
257.8656°
Rev number
2,350

§ Raw data

STARLINK-371741 68767U 26086B   26262.34404576  .00010349  00000+0  32251-3 0  99992 68767  97.2865 297.7249 0000787 102.2675 257.8656 15.33439008 23503

JSON: /api/v1/satellites/68767 · /tle

For live sub-satellite position, see the globe view (requires WebGL).

§ Visibility from observer

Set your observer location to see the next 7 days of passes ≥ 10°. The values pass through the URL so the page stays shareable.

No JS? Fill the form by hand. The geolocation button needs JavaScript.